Flag for Canada Weather past 2 weeks in East Hants, Nova Scotia, Canada

Now
18 °F

Passing clouds.


Feels Like: 0 °F
Forecast: 7 / 20 °F
Wind: 24 mph from Northwest

Location: Halifax International Airport

Current Time: Mar 3, 2015 at 3:40:29 AM

Latest Report: Mar 3, 2015 at 3:00 AM


Visibility: 15 mi

Pressure: 29.78 "Hg

Humidity: 73%

Dew point: 10 °F

Location of East HantsLocation

Historic Weather in East Hants — Graph

°F

East Hants temperature yesterday

Maximum temperature yesterday: 32 °F (at 12:00 PM)
Minimum temperature yesterday: 19 °F (at 11:00 PM)
Average temperature yesterday: 27 °F

Past Weeks' High & Low Weather Summary

 TemperatureHumidityPressure
High41 °F (Feb 22, 8:00 AM)100% (Feb 19, 12:00 AM)30.64 "Hg (Feb 19, 12:00 AM)
Low-8 °F (Feb 24, 6:00 AM)36% (Feb 28, 4:00 PM)28.85 "Hg (Feb 16, 2:00 AM)
Average18 °F76%29.94 "Hg
* Reported Feb 16 2:00 AM — Mar 3 2:00 AM, East Hants, Weather by CustomWeather, © 2015

Note: Actual official high and low records may vary slightly from our data, if they occured in-between our weather recording intervals... More about our weather records

Advertising

East Hants weather history for previous 24 hours

 ConditionsComfort  
Time TempWeatherWind HumidityBarometerVisibility
2:00 AM
Tue, Mar 3
18 °FClear.25 mph73%29.74 "Hg15 mi
1:00 AM19 °FLow level haze.21 mph73%29.72 "Hg15 mi
12:00 AM19 °FPassing clouds.21 mph73%29.68 "Hg15 mi
11:00 PM
Mon, Mar 2
19 °FLow level haze.17 mph73%29.67 "Hg15 mi
10:00 PM21 °FLow level haze.18 mph80%29.65 "Hg15 mi
9:00 PM23 °FPassing clouds.23 mph80%29.62 "Hg12 mi
8:00 PM23 °FLight snow. Ice fog.22 mph93%29.59 "Hg1 mi
7:00 PM23 °FLight snow. Passing clouds.15 mph93%29.57 "Hg2 mi
6:00 PM25 °FLight snow. Overcast.20 mph86%29.53 "Hg3 mi
5:00 PM25 °FLight snow. Overcast.20 mph93%29.50 "Hg2 mi
4:00 PM27 °FLight snow. Overcast.22 mph86%29.48 "Hg2 mi
3:00 PM30 °FLight snow. Mostly cloudy.17 mph86%29.48 "Hg2 mi
2:53 PM30 °FLight snow. Low clouds.17 mph86%29.49 "Hg2 mi
2:00 PM32 °FLight snow. Low clouds.9 mph93%29.50 "Hg1 mi
1:00 PM32 °FLight snow. Ice fog.8 mph93%29.53 "Hg3 mi
12:00 PM32 °FLight snow. Ice fog.7 mph93%29.59 "Hg3 mi
11:00 AM30 °FLight snow. Ice fog.6 mph100%29.65 "Hg3 mi
10:00 AM30 °FLight snow. More clouds than sun.8 mph93%29.71 "Hg1 mi
9:00 AM28 °FLight snow. More clouds than sun.7 mph100%29.77 "Hg1 mi
8:03 AM27 °FLight snow. Ice fog.7 mph100%29.81 "Hg1 mi
7:00 AM27 °FLight snow. Ice fog.9 mph100%29.87 "Hg1 mi
6:00 AM27 °FSnow flurries. Overcast.9 mph100%29.91 "Hg4 mi
5:00 AM27 °FSnow flurries. Low clouds.9 mph100%29.98 "Hg3 mi
4:00 AM27 °FSnow flurries. Low clouds.7 mph93%30.04 "Hg3 mi
3:00 AM27 °FSnow flurries. Low clouds.9 mph93%30.09 "Hg3 mi
Weather by CustomWeather, © 2015

See weather overviewHow to use our weather pages